Regional Weather Roundup
Issued by NWS

Home | Current Version | Previous Version | Graphics & Text | Print | Product List | Glossary On
Versions: 1 2 3 4 5 6 7 8 9 10 11 12 13 14 15 16 17 18 19 20 21 22 23 24 25 26 27 28 29 30 31 32 33 34 35 36 37 38 39 40 41 42 43 44 45 46 47 48 49 50
000
ASUS43 KMKX 211911
RWRWI

WISCONSIN REGIONAL WEATHER ROUNDUP
NATIONAL WEATHER SERVICE MILWAUKEE/SULLIVAN WI
200 PM CDT MON AUG 21 2017

NOTE: "FAIR" INDICATES FEW OR NO CLOUDS BELOW 12,000 FEET WITH NO
SIGNIFICANT WEATHER AND/OR OBSTRUCTIONS TO VISIBILITY.

WIZ001-002-006>008-014>016-023>028-212000-
NORTHWEST WISCONSIN

CITY           SKY/WX    TMP DP  RH WIND       PRES   REMARKS
SUPERIOR ARPT    N/A     66  60  82 E5        29.93F
ASHLAND        CLOUDY    67  60  78 E5        29.97F
HAYWARD        CLOUDY    72  61  68 CALM      29.98F
SIREN          CLOUDY    73  62  69 SE3       29.94F
CUMBERLAND     PTSUNNY   72  61  68 CALM      29.96F
RICE LAKE      MOSUNNY   74  65  75 CALM      29.98F
CHETEK         MOSUNNY   74  67  78 CALM      29.97F
LADYSMITH      MOSUNNY   76  66  71 CALM      30.00S
EAU CLAIRE     SUNNY     76  69  79 S6        29.95F
MENOMONIE      SUNNY     76  68  77 E5        29.96F
NEW RICHMOND   CLOUDY    73  65  74 CALM      29.97F
OSCEOLA        LGT RAIN  71  71 100 SE8       29.94F
$$

WIZ003>005-009-010-017-018-212000-
NORTH CENTRAL WISCONSIN

CITY           SKY/WX    TMP DP  RH WIND       PRES   REMARKS
MANITOWISH WTR PTSUNNY   73  60  63 SW5       30.00S
ARBOR VITAE    MOSUNNY   77  64  63 CALM      30.00F
WOODRUFF       MOSUNNY   77  64  63 CALM      30.00F
RHINELANDER    MOSUNNY   75  65  70 S5        30.00F
EAGLE RIVER    MOSUNNY   75  58  55 E6        29.99F
LAND O LAKES   PTSUNNY   74  56  52 CALM      30.02S
PHILLIPS       MOSUNNY   74  65  74 S5        29.99S
TOMAHAWK         N/A     72  64  75 CALM      30.00F
MEDFORD        CLOUDY    74  66  78 NE5       29.98F
MERRILL        CLOUDY    73  66  78 CALM      30.00S
$$

WIZ029-030-035-036-043>047-212000-
CENTRAL WISCONSIN

CITY           SKY/WX    TMP DP  RH WIND       PRES   REMARKS
WAUSAU         CLOUDY    77  68  73 S5        29.97S
MOSINEE        PTSUNNY   75  72  88 CALM      29.99R
MARSHFIELD     CLOUDY    76  68  76 S6        29.97S
STEVENS POINT  PTSUNNY   78  69  74 S7        29.98R HX  80
WAUPACA        MOSUNNY   79  71  77 S8        29.96F HX  82
WAUTOMA        PTSUNNY   76  70  82 S10       29.98F
WISC RAPIDS    CLOUDY    80  69  69 S7        29.99R HX  83
CAMP DOUGLAS   PTSUNNY   77  70  78 S8        29.96F
$$

WIZ011>013-019>022-031-037>040-048>050-212000-
NORTHEAST WISCONSIN

CITY           SKY/WX    TMP DP  RH WIND       PRES   REMARKS
ANTIGO         CLOUDY    72  67  83 E6        29.99F
SHAWANO        MOSUNNY   79  71  78 E6        29.95F HX  82
OCONTO         SUNNY     74  68  83 E5        29.96F
STURGEON BAY   PTSUNNY   74  70  87 N3        30.00F
GREEN BAY      MOSUNNY   77  71  82 SE6       29.95F
MANITOWOC        N/A    N/A N/A N/A MISG        N/A
APPLETON       PTSUNNY   73  64  73 SE9       29.96F
CLINTONVILLE   SUNNY     77  70  78 SE6       29.95F
OSHKOSH        PTSUNNY   74  68  81 S7        29.96F
$$

WIZ032>034-041-042-053>061-212000-
SOUTHWEST WISCONSIN

CITY           SKY/WX    TMP DP  RH WIND       PRES   REMARKS
LA CROSSE      CLOUDY    79  65  62 SW5       29.97S HX  81
SPARTA         MOSUNNY   75  66  73 CALM      29.98S
VIROQUA        CLOUDY    73  66  81 CALM      29.98F
BOSCOBEL       CLOUDY    79  66  64 S8        29.97F HX  81
PRAIRIE DU CHI CLOUDY    75  64  67 S3        29.97F
PLATTEVILLE    CLOUDY    73  71  93 S9        30.01S
$$

WIZ056-057-062-063-064-067-068-212000-
SOUTH CENTRAL WISCONSIN

CITY           SKY/WX    TMP DP  RH WIND       PRES   REMARKS
REEDSBURG      CLOUDY    75  72  88 S3        29.97F
BARABOO/DELLS  CLOUDY    76  68  76 S6        29.98F
LONE ROCK      CLOUDY    80  72  76 S7        29.97F HX  84
MINERAL POINT  MOSUNNY   77  72  83 S7        30.01F
MADISON        CLOUDY    75  70  84 S7        29.99F
MIDDLETON      CLOUDY    77  71  81 SE5       30.00F
WATERTOWN      CLOUDY    75  73  93 S5        29.98F
MONROE         CLOUDY    73  70  88 SE7       30.00F
JANESVILLE     PTSUNNY   77  73  88 S6        30.01F
$$

WIZ051-052-058>065-066-070>072-212000-
SOUTHEAST WISCONSIN

CITY           SKY/WX    TMP DP  RH WIND       PRES   REMARKS
MILWAUKEE      CLOUDY    78  70  76 E5        30.00F HX  80
WAUKESHA       PTSUNNY   73  70  88 SE6       30.02F
MILWAUKEE/TIMM SUNNY     79  66  65 CALM      30.01F HX  81
RACINE         CLOUDY    76  72  87 SE8       30.01F
KENOSHA        CLOUDY    80  71  74 SW8       30.03F HX  84
FOND DU LAC    CLOUDY    76  67  73 S7        29.98F
SHEBOYGAN      CLOUDY    76  71  85 SE3       29.99F
WEST BEND      CLOUDY    73  70  88 CALM      29.99F
JUNEAU         CLOUDY    74  69  83 SE3       29.99F
$$

LSZ147-162-212000-
LAKE SUPERIOR

STATION/POSITION TIME  TEMP    WIND        PRES    WAVE
                       AIR SEA DIR/SP/G            HT/PER
                 (UTC) (F)     (DEG/KT/KT) (MB)    (FT/S)
W MID LAKE BUOY  1850   61 61  310/  4/  4 1015.2F   0
DEVILS ISLAND    1900   63      30/  4/  5 1014.7F
SAXON HARBOR     1830   66      50/  5/  7 1014.9F
$$

LMZ867-665-643>646-212000-
LAKE MICHIGAN

STATION/POSITION TIME  TEMP    WIND        PRES    WAVE
                       AIR SEA DIR/SP/G            HT/PER
                 (UTC) (F)     (DEG/KT/KT) (MB)    (FT/S)
S GREEN BAY BUOY 1900   73 73   CALM  /  2 1014.9
N MID LAKE BUOY  1850   70 70  150/  4/  4 1016.0F   1
NORTHPORT PIER   1840   71     150/  4/  5 1015.6F
KEWAUNEE LAKESHO 1848   70     180/  9/  9 1014.6F
SHEBOYGAN LAKESH 1900   73     150/ 10/ 11 1015.1F
PORT WASHINGTON  1840   74     170/  2/  3 1016.6F
ATWATER BUOY     1809   72 71  140/  6/  8 1016.4F
MILWAUKEE LAKESH 1850   73     180/  2/  2   N/A
S MID LAKE BUOY  1850   72 72  130/  4/  4 1016.5F   1/ 4
KENOSHA   LAKESH 1900   74     170/ 10/ 12 1015.9
$$

TC  - TEMPERATURE IN CELSIUS
VSB - VISIBILITY IN STATUTE MILES
WCI - WIND CHILL INDEX
HX  - HEAT INDEX




USA.gov is the U.S. government's official web portal to all federal, state and local government web resources and services.